Regional Weather Roundup
Issued by NWS

Home | Current Version | Previous Version | Text Only | Print | Product List | Glossary On
Versions: 1 2 3 4 5 6 7 8 9 10 11 12 13 14 15 16 17 18 19 20 21 22 23 24 25 26 27
000
ASUS45 KBOI 171510
RWRID
WEATHER ROUNDUP FOR IDAHO
NATIONAL WEATHER SERVICE BOISE ID
900 AM MDT THU APR 17 2014

NOTE: "FAIR" INDICATES FEW OR NO CLOUDS BELOW 12000 FEET
WITH NO SIGNIFICANT WEATHER AND/OR OBSTRUCTIONS TO VISIBILITY

IDZ012-014-171600-
SOUTHWEST IDAHO


CITY           SKY/WX    TMP DP  RH WIND       PRES   REMARKS
BOISE          SUNNY     51  25  36 SE12      29.94S
CALDWELL       SUNNY     46  27  46 SE6       29.96F
MOUNTAIN HOME  SUNNY     46  23  40 E15       29.96F
$$

IDZ016-017-171600-
SOUTHCENTRAL IDAHO


CITY           SKY/WX    TMP DP  RH WIND       PRES   REMARKS
BURLEY         SUNNY     42  24  49 CALM      30.01S
JEROME         SUNNY     46  23  40 E7        30.01S
TWIN FALLS     SUNNY     53  22  29 S13       29.99S
$$

IDZ019>023-171600-
SOUTHEAST IDAHO


CITY           SKY/WX    TMP DP  RH WIND       PRES   REMARKS
IDAHO FALLS    SUNNY     43  21  41 SW8       30.04S
POCATELLO      SUNNY     46  22  38 CALM      30.04S
REXBURG        SUNNY     42  18  37 S13       30.03S
$$

IDZ006-010-011-018-031-032-171600-
CENTRAL IDAHO MOUNTAINS


CITY           SKY/WX    TMP DP  RH WIND       PRES   REMARKS
MCCALL         CLOUDY    33  26  75 CALM      29.95S
HAILEY         MOSUNNY   39  19  45 NW6       30.03S WCI  35
STANLEY          N/A    N/A N/A N/A CALM      30.03F
SALMON         MOSUNNY   36  21  55 CALM      29.99F
CHALLIS        SUNNY     38  21  50 N3        30.00F
$$

IDZ002-004-006-007-026-171600-
NORTHERN IDAHO


CITY           SKY/WX    TMP DP  RH WIND       PRES   REMARKS
LEWISTON       LGT RAIN  48  40  73 E3        29.88F
LOWELL           N/A     46  39  76 CALM      29.96F
COEUR D`ALENE  CLOUDY    45  43  93 S7        29.86F
MULLAN PASS    SNOW      30  30 100 VRB5      29.84F VSB<1/4 WCI  25
$$



USA.gov is the U.S. government's official web portal to all federal, state and local government web resources and services.